Year,Month,Day,Hour,Minute,Value (Times are PST for temperature in C)
2012,10,17,00,00,8.70
2012,10,17,00,01,8.70
2012,10,17,00,02,8.70
2012,10,17,00,03,8.70
2012,10,17,00,04,8.70
2012,10,17,00,05,8.70
2012,10,17,00,06,8.70
2012,10,17,00,07,8.70
2012,10,17,00,08,8.70
2012,10,17,00,09,8.70
2012,10,17,00,10,8.70
2012,10,17,00,11,8.70
2012,10,17,00,12,8.70
2012,10,17,00,13,8.60
2012,10,17,00,14,8.60
2012,10,17,00,15,8.60
2012,10,17,00,16,8.60
2012,10,17,00,17,8.50
2012,10,17,00,18,8.50
2012,10,17,00,19,8.50
2012,10,17,00,20,8.40
2012,10,17,00,21,8.40
2012,10,17,00,22,8.40
2012,10,17,00,23,8.40
2012,10,17,00,24,8.30
2012,10,17,00,25,8.30
2012,10,17,00,26,8.30
2012,10,17,00,27,8.30
2012,10,17,00,28,8.20
2012,10,17,00,29,8.20
2012,10,17,00,30,8.10
2012,10,17,00,31,8.10
2012,10,17,00,32,8.10
2012,10,17,00,33,8.10
2012,10,17,00,34,8.10
2012,10,17,00,35,8.00
2012,10,17,00,36,8.00
2012,10,17,00,37,8.00
2012,10,17,00,38,7.90
2012,10,17,00,39,7.90
2012,10,17,00,40,7.90
2012,10,17,00,41,7.80
2012,10,17,00,42,7.80
2012,10,17,00,43,7.80
2012,10,17,00,44,7.80
2012,10,17,00,45,7.80
2012,10,17,00,46,7.80
2012,10,17,00,47,7.80
2012,10,17,00,48,7.80
2012,10,17,00,49,7.90
2012,10,17,00,50,7.90
2012,10,17,00,51,7.90
2012,10,17,00,52,7.90
2012,10,17,00,53,8.00
2012,10,17,00,54,8.00
2012,10,17,00,55,8.00
2012,10,17,00,56,8.10
2012,10,17,00,57,8.10
2012,10,17,00,58,8.10
2012,10,17,00,59,8.10
2012,10,17,01,00,8.10
2012,10,17,01,01,8.10
2012,10,17,01,02,8.10
2012,10,17,01,03,8.10
2012,10,17,01,04,8.10
2012,10,17,01,05,8.10
2012,10,17,01,06,8.20
2012,10,17,01,07,8.20
2012,10,17,01,08,8.20
2012,10,17,01,09,8.30
2012,10,17,01,10,8.30
2012,10,17,01,11,8.40
2012,10,17,01,12,8.40
2012,10,17,01,13,8.50
2012,10,17,01,14,8.50
2012,10,17,01,15,8.60
2012,10,17,01,16,8.60
2012,10,17,01,17,8.60
2012,10,17,01,18,8.60
2012,10,17,01,19,8.60
2012,10,17,01,20,8.60
2012,10,17,01,21,8.70
2012,10,17,01,22,8.70
2012,10,17,01,23,8.70
2012,10,17,01,24,8.80
2012,10,17,01,25,8.80
2012,10,17,01,26,8.80
2012,10,17,01,27,8.80
2012,10,17,01,28,8.80
2012,10,17,01,29,8.80
2012,10,17,01,30,8.80
2012,10,17,01,31,8.80
2012,10,17,01,32,8.80
2012,10,17,01,33,8.90
2012,10,17,01,34,8.90
2012,10,17,01,35,8.90
2012,10,17,01,36,8.80
2012,10,17,01,37,8.90
2012,10,17,01,38,8.90
2012,10,17,01,39,8.90
2012,10,17,01,40,8.90
2012,10,17,01,41,8.90
2012,10,17,01,42,8.90
2012,10,17,01,43,8.90
2012,10,17,01,44,8.90
2012,10,17,01,45,8.90
2012,10,17,01,46,9.00
2012,10,17,01,47,8.90
2012,10,17,01,48,8.90
2012,10,17,01,49,8.90
2012,10,17,01,50,8.90
2012,10,17,01,51,8.90
2012,10,17,01,52,8.90
2012,10,17,01,53,8.90
2012,10,17,01,54,8.90
2012,10,17,01,55,8.90
2012,10,17,01,56,8.90
2012,10,17,01,57,8.90
2012,10,17,01,58,8.90
2012,10,17,01,59,8.90
2012,10,17,02,00,8.90
2012,10,17,02,01,8.90
2012,10,17,02,02,8.90
2012,10,17,02,03,8.90
2012,10,17,02,04,8.90
2012,10,17,02,05,8.90
2012,10,17,02,06,9.00
2012,10,17,02,07,9.00
2012,10,17,02,08,9.10
2012,10,17,02,09,9.10
2012,10,17,02,10,9.10
2012,10,17,02,11,9.10
2012,10,17,02,12,9.20
2012,10,17,02,13,9.20
2012,10,17,02,14,9.30
2012,10,17,02,15,9.30
2012,10,17,02,16,9.30
2012,10,17,02,17,9.30
2012,10,17,02,18,9.30
2012,10,17,02,19,9.30
2012,10,17,02,20,9.30
2012,10,17,02,21,9.30
2012,10,17,02,22,9.30
2012,10,17,02,23,9.30
2012,10,17,02,24,9.30
2012,10,17,02,25,9.20
2012,10,17,02,26,9.20
2012,10,17,02,27,9.20
2012,10,17,02,28,9.20
2012,10,17,02,29,9.20
2012,10,17,02,30,9.20
2012,10,17,02,31,9.20
2012,10,17,02,32,9.20
2012,10,17,02,33,9.20
2012,10,17,02,34,9.20
2012,10,17,02,35,9.20
2012,10,17,02,36,9.20
2012,10,17,02,37,9.20
2012,10,17,02,38,9.20
2012,10,17,02,39,9.10
2012,10,17,02,40,9.10
2012,10,17,02,41,9.00
2012,10,17,02,42,9.00
2012,10,17,02,43,8.90
2012,10,17,02,44,8.90
2012,10,17,02,45,8.80
2012,10,17,02,46,8.80
2012,10,17,02,47,8.80
2012,10,17,02,48,8.80
2012,10,17,02,49,8.70
2012,10,17,02,50,8.70
2012,10,17,02,51,8.60
2012,10,17,02,52,8.60
2012,10,17,02,53,8.50
2012,10,17,02,54,8.50
2012,10,17,02,55,8.40
2012,10,17,02,56,8.40
2012,10,17,02,57,8.30
2012,10,17,02,58,8.30
2012,10,17,02,59,8.30
2012,10,17,03,00,8.30
2012,10,17,03,01,8.30
2012,10,17,03,02,8.30
2012,10,17,03,03,8.30
2012,10,17,03,04,8.30
2012,10,17,03,05,8.30
2012,10,17,03,06,8.30
2012,10,17,03,07,8.30
2012,10,17,03,08,8.20
2012,10,17,03,09,8.20
2012,10,17,03,10,8.20
2012,10,17,03,11,8.20
2012,10,17,03,12,8.20
2012,10,17,03,13,8.10
2012,10,17,03,14,8.10
2012,10,17,03,15,8.10
2012,10,17,03,16,8.10
2012,10,17,03,17,8.10
2012,10,17,03,18,8.10
2012,10,17,03,19,8.10
2012,10,17,03,20,8.10
2012,10,17,03,21,8.10
2012,10,17,03,22,8.10
2012,10,17,03,23,8.10
2012,10,17,03,24,8.10
2012,10,17,03,25,8.00
2012,10,17,03,26,8.00
2012,10,17,03,27,8.00
2012,10,17,03,28,8.00
2012,10,17,03,29,8.00
2012,10,17,03,30,8.00
2012,10,17,03,31,8.00
2012,10,17,03,32,8.00
2012,10,17,03,33,8.00
2012,10,17,03,34,8.00
2012,10,17,03,35,8.00
2012,10,17,03,36,8.00
2012,10,17,03,37,7.90
2012,10,17,03,38,7.90
2012,10,17,03,39,7.90
2012,10,17,03,40,7.90
2012,10,17,03,41,7.90
2012,10,17,03,42,7.80
2012,10,17,03,43,7.80
2012,10,17,03,44,7.80
2012,10,17,03,45,7.80
2012,10,17,03,49,7.80
2012,10,17,03,50,7.80
2012,10,17,03,51,7.80
2012,10,17,03,52,7.80
2012,10,17,03,53,7.80
2012,10,17,03,54,7.70
2012,10,17,03,55,7.70
2012,10,17,03,56,7.70
2012,10,17,03,57,7.70
2012,10,17,03,58,7.70
2012,10,17,03,59,7.60
2012,10,17,04,00,7.60
2012,10,17,04,01,7.60
2012,10,17,04,02,7.60
2012,10,17,04,03,7.50
2012,10,17,04,04,7.50
2012,10,17,04,05,7.40
2012,10,17,04,06,7.40
2012,10,17,04,07,7.40
2012,10,17,04,08,7.30
2012,10,17,04,09,7.30
2012,10,17,04,10,7.30
2012,10,17,04,11,7.20
2012,10,17,04,12,7.20
2012,10,17,04,13,7.20
2012,10,17,04,14,7.20
2012,10,17,04,15,7.20
2012,10,17,04,16,7.20
2012,10,17,04,17,7.20
2012,10,17,04,18,7.20
2012,10,17,04,19,7.20
2012,10,17,04,20,7.10
2012,10,17,04,21,7.10
2012,10,17,04,22,7.10
2012,10,17,04,23,7.10
2012,10,17,04,24,7.00
2012,10,17,04,25,7.00
2012,10,17,04,26,7.00
2012,10,17,04,27,6.90
2012,10,17,04,28,6.90
2012,10,17,04,29,6.90
2012,10,17,04,30,6.90
2012,10,17,04,31,6.80
2012,10,17,04,32,6.80
2012,10,17,04,33,6.80
2012,10,17,04,34,6.70
2012,10,17,04,35,6.70
2012,10,17,04,36,6.70
2012,10,17,04,37,6.70
2012,10,17,04,38,6.70
2012,10,17,04,39,6.80
2012,10,17,04,40,6.80
2012,10,17,04,41,6.80
2012,10,17,04,42,6.80
2012,10,17,04,43,6.90
2012,10,17,04,44,6.90
2012,10,17,04,45,6.90
2012,10,17,04,46,7.00
2012,10,17,04,47,7.00
2012,10,17,04,48,7.00
2012,10,17,04,49,7.00
2012,10,17,04,50,7.00
2012,10,17,04,51,7.00
2012,10,17,04,52,7.00
2012,10,17,04,53,6.90
2012,10,17,04,54,6.90
2012,10,17,04,55,6.90
2012,10,17,04,56,6.80
2012,10,17,04,57,6.80
2012,10,17,04,58,6.70
2012,10,17,04,59,6.70
2012,10,17,05,00,6.70
2012,10,17,05,01,6.70
2012,10,17,05,02,6.60
2012,10,17,05,03,6.60
2012,10,17,05,04,6.60
2012,10,17,05,05,6.50
2012,10,17,05,06,6.50
2012,10,17,05,07,6.50
2012,10,17,05,08,6.50
2012,10,17,05,09,6.50
2012,10,17,05,10,6.50
2012,10,17,05,11,6.40
2012,10,17,05,12,6.40
2012,10,17,05,13,6.40
2012,10,17,05,14,6.40
2012,10,17,05,15,6.40
2012,10,17,05,16,6.40
2012,10,17,05,17,6.40
2012,10,17,05,18,6.40
2012,10,17,05,19,6.40
2012,10,17,05,20,6.40
2012,10,17,05,21,6.40
2012,10,17,05,22,6.40
2012,10,17,05,23,6.40
2012,10,17,05,24,6.40
2012,10,17,05,25,6.30
2012,10,17,05,26,6.30
2012,10,17,05,27,6.30
2012,10,17,05,28,6.30
2012,10,17,05,29,6.40
2012,10,17,05,30,6.40
2012,10,17,05,31,6.40
2012,10,17,05,32,6.40
2012,10,17,05,33,6.30
2012,10,17,05,34,6.30
2012,10,17,05,35,6.30
2012,10,17,05,36,6.30
2012,10,17,05,37,6.30
2012,10,17,05,38,6.30
2012,10,17,05,39,6.20
2012,10,17,05,40,6.20
2012,10,17,05,41,6.20
2012,10,17,05,42,6.10
2012,10,17,05,43,6.10
2012,10,17,05,44,6.10
2012,10,17,05,45,6.00
2012,10,17,05,46,6.00
2012,10,17,05,47,6.00
2012,10,17,05,48,6.00
2012,10,17,05,49,6.00
2012,10,17,05,50,6.00
2012,10,17,05,51,5.90
2012,10,17,05,52,5.90
2012,10,17,05,53,5.90
2012,10,17,05,54,5.90
2012,10,17,05,55,5.90
2012,10,17,05,56,5.90
2012,10,17,05,57,5.90
2012,10,17,05,58,5.90
2012,10,17,05,59,5.90
2012,10,17,06,00,5.90
2012,10,17,06,01,5.90
2012,10,17,06,02,5.90
2012,10,17,06,03,5.80
2012,10,17,06,04,5.80
2012,10,17,06,05,5.80
2012,10,17,06,06,5.80
2012,10,17,06,07,5.80
2012,10,17,06,08,5.80
2012,10,17,06,09,5.80
2012,10,17,06,10,5.80
2012,10,17,06,11,5.80
2012,10,17,06,12,5.80
2012,10,17,06,13,5.80
2012,10,17,06,14,5.80
2012,10,17,06,15,5.80
2012,10,17,06,16,5.80
2012,10,17,06,17,5.80
2012,10,17,06,18,5.80
2012,10,17,06,19,5.80
2012,10,17,06,20,5.80
2012,10,17,06,21,5.80
2012,10,17,06,22,5.80
2012,10,17,06,23,5.80
2012,10,17,06,24,5.80
2012,10,17,06,25,5.80
2012,10,17,06,26,5.80
2012,10,17,06,27,5.80
2012,10,17,06,28,5.80
2012,10,17,06,29,5.70
2012,10,17,06,30,5.70
2012,10,17,06,31,5.70
2012,10,17,06,32,5.70
2012,10,17,06,33,5.70
2012,10,17,06,34,5.70
2012,10,17,06,35,5.70
2012,10,17,06,36,5.70
2012,10,17,06,37,5.70
2012,10,17,06,38,5.70
2012,10,17,06,39,5.70
2012,10,17,06,40,5.70
2012,10,17,06,41,5.70
2012,10,17,06,42,5.70
2012,10,17,06,43,5.70
2012,10,17,06,44,5.70
2012,10,17,06,45,5.70
2012,10,17,06,46,5.70
2012,10,17,06,47,5.70
2012,10,17,06,48,5.70
2012,10,17,06,49,5.70
2012,10,17,06,50,5.70
2012,10,17,06,51,5.70
2012,10,17,06,52,5.70
2012,10,17,06,53,5.70
2012,10,17,06,54,5.70
2012,10,17,06,55,5.70
2012,10,17,06,56,5.70
2012,10,17,06,57,5.70
2012,10,17,06,58,5.70
2012,10,17,06,59,5.70
2012,10,17,07,00,5.70
2012,10,17,07,01,5.70
2012,10,17,07,02,5.70
2012,10,17,07,03,5.70
2012,10,17,07,04,5.70
2012,10,17,07,05,5.70
2012,10,17,07,06,5.60
2012,10,17,07,07,5.60
2012,10,17,07,08,5.60
2012,10,17,07,09,5.60
2012,10,17,07,10,5.60
2012,10,17,07,11,5.60
2012,10,17,07,12,5.60
2012,10,17,07,13,5.60
2012,10,17,07,14,5.60
2012,10,17,07,15,5.60
2012,10,17,07,16,5.60
2012,10,17,07,17,5.60
2012,10,17,07,18,5.60
2012,10,17,07,19,5.60
2012,10,17,07,20,5.60
2012,10,17,07,21,5.60
2012,10,17,07,22,5.60
2012,10,17,07,23,5.60
2012,10,17,07,24,5.60
2012,10,17,07,25,5.60
2012,10,17,07,26,5.60
2012,10,17,07,27,5.60
2012,10,17,07,28,5.60
2012,10,17,07,29,5.60
2012,10,17,07,30,5.60
2012,10,17,07,31,5.60
2012,10,17,07,32,5.60
2012,10,17,07,33,5.70
2012,10,17,07,34,5.70
2012,10,17,07,35,5.70
2012,10,17,07,36,5.70
2012,10,17,07,37,5.70
2012,10,17,07,38,5.70
2012,10,17,07,39,5.70
2012,10,17,07,40,5.70
2012,10,17,07,41,5.80
2012,10,17,07,42,5.80
2012,10,17,07,43,5.80
2012,10,17,07,44,5.80
2012,10,17,07,45,5.80
2012,10,17,07,46,5.80
2012,10,17,07,47,5.80
2012,10,17,07,48,5.80
2012,10,17,07,49,5.80
2012,10,17,07,50,5.80
2012,10,17,07,51,5.90
2012,10,17,07,52,5.90
2012,10,17,07,53,5.90
2012,10,17,07,54,5.90
2012,10,17,07,55,5.90
2012,10,17,07,56,5.90
2012,10,17,07,57,5.90
2012,10,17,07,58,5.80
2012,10,17,07,59,5.80
2012,10,17,08,00,5.80
2012,10,17,08,01,5.80
2012,10,17,08,02,5.80
2012,10,17,08,03,5.80
2012,10,17,08,04,5.80
2012,10,17,08,05,5.90
2012,10,17,08,06,5.90
2012,10,17,08,07,5.90
2012,10,17,08,08,5.90
2012,10,17,08,09,5.90
2012,10,17,08,10,5.90
2012,10,17,08,11,6.00
2012,10,17,08,12,6.00
2012,10,17,08,13,6.00
2012,10,17,08,14,6.00
2012,10,17,08,15,6.00
2012,10,17,08,16,6.10
2012,10,17,08,17,6.10
2012,10,17,08,18,6.10
2012,10,17,08,19,6.10
2012,10,17,08,20,6.10
2012,10,17,08,21,6.10
2012,10,17,08,22,6.10
2012,10,17,08,23,6.10
2012,10,17,08,24,6.10
2012,10,17,08,25,6.10
2012,10,17,08,26,6.20
2012,10,17,08,27,6.20
2012,10,17,08,28,6.20
2012,10,17,08,29,6.20
2012,10,17,08,30,6.20
2012,10,17,08,31,6.20
2012,10,17,08,32,6.20
2012,10,17,08,33,6.20
2012,10,17,08,34,6.20
2012,10,17,08,35,6.20
2012,10,17,08,36,6.20
2012,10,17,08,37,6.20
2012,10,17,08,38,6.20
2012,10,17,08,39,6.20
2012,10,17,08,40,6.20
2012,10,17,08,41,6.20
2012,10,17,08,42,6.30
2012,10,17,08,43,6.30
2012,10,17,08,44,6.30
2012,10,17,08,45,6.30
2012,10,17,08,46,6.40
2012,10,17,08,47,6.40
2012,10,17,08,48,6.40
2012,10,17,08,49,6.50
2012,10,17,08,50,6.50
2012,10,17,08,51,6.60
2012,10,17,08,52,6.60
2012,10,17,08,53,6.60
2012,10,17,08,54,6.70
2012,10,17,08,55,6.70
2012,10,17,08,56,6.80
2012,10,17,08,57,6.80
2012,10,17,08,58,6.80
2012,10,17,08,59,6.80
2012,10,17,09,00,6.90
2012,10,17,09,01,6.90
2012,10,17,09,02,6.90
2012,10,17,09,03,7.00
2012,10,17,09,04,7.00
2012,10,17,09,05,7.00
2012,10,17,09,06,7.00
2012,10,17,09,07,7.00
2012,10,17,09,08,7.00
2012,10,17,09,09,7.00
2012,10,17,09,10,7.00
2012,10,17,09,11,7.10
2012,10,17,09,12,7.10
2012,10,17,09,13,7.20
2012,10,17,09,14,7.20
2012,10,17,09,15,7.20
2012,10,17,09,16,7.20
2012,10,17,09,17,7.20
2012,10,17,09,18,7.30
2012,10,17,09,19,7.30
2012,10,17,09,20,7.30
2012,10,17,09,21,7.30
2012,10,17,09,22,7.40
2012,10,17,09,23,7.40
2012,10,17,09,24,7.40
2012,10,17,09,25,7.40
2012,10,17,09,26,7.40
2012,10,17,09,27,7.40
2012,10,17,09,28,7.40
2012,10,17,09,29,7.50
2012,10,17,09,30,7.50
2012,10,17,09,31,7.50
2012,10,17,09,32,7.50
2012,10,17,09,33,7.60
2012,10,17,09,34,7.60
2012,10,17,09,35,7.60
2012,10,17,09,36,7.60
2012,10,17,09,37,7.60
2012,10,17,09,38,7.60
2012,10,17,09,39,7.60
2012,10,17,09,40,7.60
2012,10,17,09,41,7.70
2012,10,17,09,42,7.70
2012,10,17,09,43,7.70
2012,10,17,09,44,7.70
2012,10,17,09,45,7.70
2012,10,17,09,46,7.80
2012,10,17,09,47,7.80
2012,10,17,09,48,7.80
2012,10,17,09,49,7.80
2012,10,17,09,50,7.80
2012,10,17,09,51,7.90
2012,10,17,09,52,7.90
2012,10,17,09,53,7.90
2012,10,17,09,54,8.00
2012,10,17,09,55,8.00
2012,10,17,09,56,8.00
2012,10,17,09,57,8.10
2012,10,17,09,58,8.10
2012,10,17,09,59,8.10
2012,10,17,10,00,8.10
2012,10,17,10,01,8.10
2012,10,17,10,02,8.20
2012,10,17,10,03,8.20
2012,10,17,10,04,8.20
2012,10,17,10,05,8.20
2012,10,17,10,06,8.30
2012,10,17,10,07,8.30
2012,10,17,10,08,8.30
2012,10,17,10,09,8.40
2012,10,17,10,10,8.40
2012,10,17,10,11,8.50
2012,10,17,10,12,8.50
2012,10,17,10,13,8.60
2012,10,17,10,14,8.70
2012,10,17,10,15,8.80
2012,10,17,10,16,8.80
2012,10,17,10,17,8.90
2012,10,17,10,18,9.00
2012,10,17,10,19,9.00
2012,10,17,10,20,9.10
2012,10,17,10,21,9.20
2012,10,17,10,22,9.20
2012,10,17,10,23,9.20
2012,10,17,10,24,9.30
2012,10,17,10,25,9.30
2012,10,17,10,26,9.30
2012,10,17,10,27,9.40
2012,10,17,10,28,9.40
2012,10,17,10,29,9.40
2012,10,17,10,30,9.40
2012,10,17,10,31,9.40
2012,10,17,10,32,9.50
2012,10,17,10,33,9.50
2012,10,17,10,34,9.60
2012,10,17,10,35,9.60
2012,10,17,10,36,9.60
2012,10,17,10,37,9.70
2012,10,17,10,38,9.70
2012,10,17,10,39,9.80
2012,10,17,10,40,9.90
2012,10,17,10,41,9.90
2012,10,17,10,42,10.00
2012,10,17,10,43,10.00
2012,10,17,10,44,10.10
2012,10,17,10,45,10.10
2012,10,17,10,46,10.20
2012,10,17,10,47,10.20
2012,10,17,10,48,10.30
2012,10,17,10,49,10.30
2012,10,17,10,50,10.40
2012,10,17,10,51,10.40
2012,10,17,10,52,10.40
2012,10,17,10,53,10.50
2012,10,17,10,54,10.60
2012,10,17,10,55,10.60
2012,10,17,10,56,10.60
2012,10,17,10,57,10.70
2012,10,17,10,58,10.70
2012,10,17,10,59,10.70
2012,10,17,11,00,10.70
2012,10,17,11,01,10.70
2012,10,17,11,02,10.70
2012,10,17,11,03,10.80
2012,10,17,11,04,10.80
2012,10,17,11,05,10.80
2012,10,17,11,06,10.80
2012,10,17,11,07,10.80
2012,10,17,11,08,10.80
2012,10,17,11,09,10.80
2012,10,17,11,10,10.70
2012,10,17,11,11,10.70
2012,10,17,11,12,10.70
2012,10,17,11,13,10.70
2012,10,17,11,14,10.70
2012,10,17,11,15,10.60
2012,10,17,11,16,10.50
2012,10,17,11,17,10.50
2012,10,17,11,18,10.40
2012,10,17,11,19,10.30
2012,10,17,11,20,10.30
2012,10,17,11,21,10.30
2012,10,17,11,22,10.30
2012,10,17,11,23,10.30
2012,10,17,11,24,10.30
2012,10,17,11,25,10.20
2012,10,17,11,26,10.20
2012,10,17,11,27,10.20
2012,10,17,11,28,10.10
2012,10,17,11,29,10.10
2012,10,17,11,30,10.10
2012,10,17,11,31,10.10
2012,10,17,11,32,10.10
2012,10,17,11,33,10.00
2012,10,17,11,34,10.00
2012,10,17,11,35,10.00
2012,10,17,11,36,10.00
2012,10,17,11,37,10.00
2012,10,17,11,38,10.00
2012,10,17,11,39,10.00
2012,10,17,11,40,9.90
2012,10,17,11,41,10.00
2012,10,17,11,42,10.00
2012,10,17,11,43,10.10
2012,10,17,11,44,10.10
2012,10,17,11,45,10.20
2012,10,17,11,46,10.10
2012,10,17,11,47,10.10
2012,10,17,11,48,10.10
2012,10,17,11,49,10.10
2012,10,17,11,50,10.10
2012,10,17,11,51,10.20
2012,10,17,11,52,10.20
2012,10,17,11,53,10.30
2012,10,17,11,54,10.30
2012,10,17,11,55,10.40
2012,10,17,11,56,10.40
2012,10,17,11,57,10.40
2012,10,17,11,58,10.40
2012,10,17,11,59,10.50
2012,10,17,12,00,10.50
2012,10,17,12,01,10.50
2012,10,17,12,02,10.40
2012,10,17,12,03,10.40
2012,10,17,12,04,10.40
2012,10,17,12,05,10.30
2012,10,17,12,06,10.40
2012,10,17,12,07,10.40
2012,10,17,12,08,10.40
2012,10,17,12,09,10.40
2012,10,17,12,10,10.40
2012,10,17,12,11,10.40
2012,10,17,12,12,10.50
2012,10,17,12,13,10.50
2012,10,17,12,14,10.50
2012,10,17,12,15,10.50
2012,10,17,12,16,10.60
2012,10,17,12,17,10.60
2012,10,17,12,18,10.60
2012,10,17,12,19,10.70
2012,10,17,12,20,10.70
2012,10,17,12,21,10.70
2012,10,17,12,22,10.70
2012,10,17,12,23,10.70
2012,10,17,12,24,10.70
2012,10,17,12,25,10.70
2012,10,17,12,26,10.80
2012,10,17,12,27,10.80
2012,10,17,12,28,10.80
2012,10,17,12,29,10.80
2012,10,17,12,30,10.70
2012,10,17,12,31,10.60
2012,10,17,12,32,10.60
2012,10,17,12,33,10.60
2012,10,17,12,34,10.60
2012,10,17,12,35,10.60
2012,10,17,12,36,10.60
2012,10,17,12,37,10.60
2012,10,17,12,38,10.60
2012,10,17,12,39,10.60
2012,10,17,12,40,10.70
2012,10,17,12,41,10.70
2012,10,17,12,42,10.70
2012,10,17,12,43,10.80
2012,10,17,12,44,10.80
2012,10,17,12,45,10.80
2012,10,17,12,46,10.80
2012,10,17,12,47,10.90
2012,10,17,12,48,10.80
2012,10,17,12,49,10.90
2012,10,17,12,50,10.90
2012,10,17,12,51,10.90
2012,10,17,12,52,10.90
2012,10,17,12,53,10.90
2012,10,17,12,54,10.90
2012,10,17,12,55,10.90
2012,10,17,12,56,10.90
2012,10,17,12,57,10.90
2012,10,17,12,58,10.90
2012,10,17,12,59,10.90
2012,10,17,13,00,10.90
2012,10,17,13,01,10.90
2012,10,17,13,02,10.80
2012,10,17,13,03,10.80
2012,10,17,13,04,10.80
2012,10,17,13,05,10.80
2012,10,17,13,06,10.80
2012,10,17,13,07,10.80
2012,10,17,13,08,10.80
2012,10,17,13,09,10.80
2012,10,17,13,10,10.80
2012,10,17,13,11,10.80
2012,10,17,13,12,10.90
2012,10,17,13,13,10.90
2012,10,17,13,14,11.00
2012,10,17,13,15,11.00
2012,10,17,13,16,11.00
2012,10,17,13,17,11.00
2012,10,17,13,18,11.00
2012,10,17,13,19,11.00
2012,10,17,13,20,11.10
2012,10,17,13,21,11.10
2012,10,17,13,22,11.10
2012,10,17,13,23,11.10
2012,10,17,13,24,11.10
2012,10,17,13,25,11.20
2012,10,17,13,26,11.20
2012,10,17,13,27,11.20
2012,10,17,13,28,11.30
2012,10,17,13,29,11.30
2012,10,17,13,30,11.40
2012,10,17,13,31,11.40
2012,10,17,13,32,11.40
2012,10,17,13,33,11.40
2012,10,17,13,34,11.40
2012,10,17,13,35,11.40
2012,10,17,13,36,11.40
2012,10,17,13,37,11.30
2012,10,17,13,38,11.30
2012,10,17,13,39,11.30
2012,10,17,13,40,11.30
2012,10,17,13,41,11.30
2012,10,17,13,42,11.30
2012,10,17,13,43,11.30
2012,10,17,13,44,11.30
2012,10,17,13,45,11.30
2012,10,17,13,46,11.30
2012,10,17,13,47,11.30
2012,10,17,13,48,11.40
2012,10,17,13,49,11.40
2012,10,17,13,50,11.50
2012,10,17,13,51,11.50
2012,10,17,13,52,11.50
2012,10,17,13,53,11.60
2012,10,17,13,54,11.60
2012,10,17,13,55,11.60
2012,10,17,13,56,11.60
2012,10,17,13,57,11.60
2012,10,17,13,58,11.70
2012,10,17,13,59,11.60
2012,10,17,14,00,11.60
2012,10,17,14,01,11.60
2012,10,17,14,02,11.60
2012,10,17,14,03,11.60
2012,10,17,14,04,11.60
2012,10,17,14,05,11.50
2012,10,17,14,06,11.60
2012,10,17,14,07,11.60
2012,10,17,14,08,11.60
2012,10,17,14,09,11.70
2012,10,17,14,10,11.70
2012,10,17,14,11,11.70
2012,10,17,14,12,11.70
2012,10,17,14,13,11.80
2012,10,17,14,14,11.80
2012,10,17,14,15,11.80
2012,10,17,14,16,11.80
2012,10,17,14,17,11.80
2012,10,17,14,18,11.80
2012,10,17,14,19,11.80
2012,10,17,14,20,11.80
2012,10,17,14,21,11.80
2012,10,17,14,22,11.80
2012,10,17,14,23,11.90
2012,10,17,14,24,11.80
2012,10,17,14,25,11.80
2012,10,17,14,26,11.70
2012,10,17,14,27,11.60
2012,10,17,14,28,11.60
2012,10,17,14,29,11.60
2012,10,17,14,30,11.70
2012,10,17,14,31,11.80
2012,10,17,14,32,11.80
2012,10,17,14,33,11.80
2012,10,17,14,34,11.90
2012,10,17,14,35,11.90
2012,10,17,14,36,11.90
2012,10,17,14,37,12.00
2012,10,17,14,38,12.00
2012,10,17,14,39,12.00
2012,10,17,14,40,12.00
2012,10,17,14,41,11.90
2012,10,17,14,42,11.90
2012,10,17,14,43,11.80
2012,10,17,14,44,11.80
2012,10,17,14,45,11.80
2012,10,17,14,46,11.80
2012,10,17,14,47,11.70
2012,10,17,14,48,11.70
2012,10,17,14,49,11.70
2012,10,17,14,50,11.70
2012,10,17,14,51,11.70
2012,10,17,14,52,11.70
2012,10,17,14,53,11.80
2012,10,17,14,54,11.80
2012,10,17,14,55,11.80
2012,10,17,14,56,11.80
2012,10,17,14,57,11.80
2012,10,17,14,58,11.80
2012,10,17,14,59,11.90
2012,10,17,15,00,11.90
2012,10,17,15,01,11.80
2012,10,17,15,02,11.80
2012,10,17,15,03,11.80
2012,10,17,15,04,11.70
2012,10,17,15,05,11.70
2012,10,17,15,06,11.70
2012,10,17,15,07,11.60
2012,10,17,15,08,11.60
2012,10,17,15,09,11.60
2012,10,17,15,10,11.60
2012,10,17,15,11,11.60
2012,10,17,15,12,11.60
2012,10,17,15,13,11.60
2012,10,17,15,14,11.60
2012,10,17,15,15,11.60
2012,10,17,15,16,11.60
2012,10,17,15,17,11.60
2012,10,17,15,18,11.60
2012,10,17,15,19,11.60
2012,10,17,15,20,11.70
2012,10,17,15,21,11.70
2012,10,17,15,22,11.70
2012,10,17,15,23,11.70
2012,10,17,15,24,11.70
2012,10,17,15,25,11.80
2012,10,17,15,26,11.80
2012,10,17,15,27,11.80
2012,10,17,15,28,11.80
2012,10,17,15,29,11.80
2012,10,17,15,30,11.80
2012,10,17,15,31,11.70
2012,10,17,15,32,11.70
2012,10,17,15,33,11.70
2012,10,17,15,34,11.70
2012,10,17,15,35,11.70
2012,10,17,15,36,11.70
2012,10,17,15,37,11.70
2012,10,17,15,38,11.70
2012,10,17,15,39,11.70
2012,10,17,15,40,11.70
2012,10,17,15,41,11.80
2012,10,17,15,42,11.80
2012,10,17,15,43,11.80
2012,10,17,15,44,11.80
2012,10,17,15,45,11.80
2012,10,17,15,46,11.80
2012,10,17,15,47,11.80
2012,10,17,15,48,11.80
2012,10,17,15,49,11.90
2012,10,17,15,50,11.90
2012,10,17,15,51,11.90
2012,10,17,15,52,11.90
2012,10,17,15,53,11.90
2012,10,17,15,54,11.80
2012,10,17,15,55,11.80
2012,10,17,15,56,11.80
2012,10,17,15,57,11.80
2012,10,17,15,58,11.80
2012,10,17,15,59,11.80
2012,10,17,16,00,11.90
2012,10,17,16,01,11.90
2012,10,17,16,02,11.90
2012,10,17,16,03,11.90
2012,10,17,16,04,11.90
2012,10,17,16,05,11.80
2012,10,17,16,06,11.80
2012,10,17,16,07,11.80
2012,10,17,16,08,11.80
2012,10,17,16,09,11.70
2012,10,17,16,10,11.70
2012,10,17,16,11,11.70
2012,10,17,16,12,11.70
2012,10,17,16,13,11.60
2012,10,17,16,14,11.60
2012,10,17,16,15,11.60
2012,10,17,16,16,11.60
2012,10,17,16,17,11.50
2012,10,17,16,18,11.60
2012,10,17,16,19,11.50
2012,10,17,16,20,11.50
2012,10,17,16,21,11.40
2012,10,17,16,22,11.40
2012,10,17,16,23,11.40
2012,10,17,16,24,11.40
2012,10,17,16,25,11.40
2012,10,17,16,26,11.40
2012,10,17,16,27,11.40
2012,10,17,16,28,11.40
2012,10,17,16,29,11.40
2012,10,17,16,30,11.40
2012,10,17,16,31,11.40
2012,10,17,16,32,11.40
2012,10,17,16,33,11.40
2012,10,17,16,34,11.40
2012,10,17,16,35,11.30
2012,10,17,16,36,11.30
2012,10,17,16,37,11.30
2012,10,17,16,38,11.30
2012,10,17,16,39,11.30
2012,10,17,16,40,11.30
2012,10,17,16,41,11.30
2012,10,17,16,42,11.20
2012,10,17,16,43,11.20
2012,10,17,16,44,11.20
2012,10,17,16,45,11.20
2012,10,17,16,46,11.20
2012,10,17,16,47,11.20
2012,10,17,16,48,11.20
2012,10,17,16,49,11.20
2012,10,17,16,50,11.20
2012,10,17,16,51,11.20
2012,10,17,16,52,11.20
2012,10,17,16,53,11.20
2012,10,17,16,54,11.20
2012,10,17,16,55,11.20
2012,10,17,16,56,11.10
2012,10,17,16,57,11.10
2012,10,17,16,58,11.10
2012,10,17,16,59,11.10
2012,10,17,17,00,11.10
2012,10,17,17,01,11.10
2012,10,17,17,02,11.10
2012,10,17,17,03,11.00
2012,10,17,17,04,11.00
2012,10,17,17,05,11.00
2012,10,17,17,06,11.00
2012,10,17,17,07,11.00
2012,10,17,17,08,11.00
2012,10,17,17,09,11.00
2012,10,17,17,10,10.90
2012,10,17,17,11,10.90
2012,10,17,17,12,10.90
2012,10,17,17,13,10.90
2012,10,17,17,14,10.80
2012,10,17,17,15,10.80
2012,10,17,17,16,10.80
2012,10,17,17,17,10.80
2012,10,17,17,18,10.80
2012,10,17,17,19,10.80
2012,10,17,17,20,10.80
2012,10,17,17,21,10.80
2012,10,17,17,22,10.80
2012,10,17,17,23,10.80
2012,10,17,17,24,10.70
2012,10,17,17,25,10.70
2012,10,17,17,26,10.70
2012,10,17,17,27,10.70
2012,10,17,17,28,10.70
2012,10,17,17,29,10.70
2012,10,17,17,30,10.70
2012,10,17,17,31,10.70
2012,10,17,17,32,10.70
2012,10,17,17,33,10.70
2012,10,17,17,34,10.70
2012,10,17,17,35,10.70
2012,10,17,17,36,10.70
2012,10,17,17,37,10.60
2012,10,17,17,38,10.60
2012,10,17,17,39,10.60
2012,10,17,17,40,10.60
2012,10,17,17,41,10.60
2012,10,17,17,42,10.60
2012,10,17,17,43,10.60
2012,10,17,17,44,10.60
2012,10,17,17,45,10.60
2012,10,17,17,46,10.60
2012,10,17,17,47,10.50
2012,10,17,17,48,10.50
2012,10,17,17,49,10.50
2012,10,17,17,50,10.50